Location: Burland Observatory
(39.4088°N, 105.4217°W)
Time: 00:49:50
(UTC-07:00)

Explorer 7 - Visible Passes

Search period start: 06 December 2019 00:00
Search period end: 16 December 2019 00:00
Orbit: 485 x 680 km, 50.3° (Epoch: 05 December)

Date Brightness Start Highest point End Pass type
(mag) Time Alt. Az. Time Alt. Az. Time Alt. Az.
06 Dec 7.3 17:13:17 10° WSW 17:18:10 80° NW 17:23:05 10° NE visible
06 Dec 8.6 18:55:09 10° WNW 18:59:23 28° NNW 18:59:25 28° NNW visible
07 Dec 7.7 17:18:23 10° WSW 17:23:11 56° NNW 17:27:54 11° NE visible
07 Dec 8.9 19:00:37 10° WNW 19:04:13 24° NNW 19:04:13 24° NNW visible
08 Dec 8.1 17:23:40 10° W 17:28:17 41° NNW 17:32:41 11° NE visible
08 Dec 9.1 19:06:02 10° WNW 19:09:00 21° NNW 19:09:00 21° NNW visible
09 Dec 8.4 17:29:03 10° W 17:33:26 32° NNW 17:37:27 12° NE visible
09 Dec 9.2 19:11:21 10° NW 19:13:46 20° NNW 19:13:46 20° NNW visible
10 Dec 8.7 17:34:29 10° WNW 17:38:39 27° NNW 17:42:12 13° NE visible
10 Dec 9.3 19:16:34 10° NW 19:18:31 18° NNW 19:18:31 18° NNW visible
11 Dec 8.8 17:39:56 10° WNW 17:43:54 24° N 17:46:58 14° NE visible
11 Dec 9.4 19:21:38 10° NW 19:23:17 18° NNW 19:23:17 18° NNW visible
12 Dec 8.8 17:45:20 10° NW 17:49:11 22° N 17:51:45 15° NE visible
12 Dec 9.5 19:26:37 10° NW 19:28:05 17° NNW 19:28:05 17° NNW visible
13 Dec 8.7 17:50:37 10° NW 17:54:28 22° N 17:56:34 17° NE visible
13 Dec 9.5 19:31:33 10° NW 19:32:54 18° NW 19:32:54 18° NW visible
14 Dec 8.6 17:55:46 10° NW 17:59:45 24° N 18:01:27 20° NE visible
14 Dec 9.5 19:36:27 10° NW 19:37:47 18° NW 19:37:47 18° NW visible
15 Dec 8.4 18:00:48 10° NW 18:05:00 27° NNE 18:06:25 24° NE visible
15 Dec 9.5 19:41:22 10° NW 19:42:45 19° NW 19:42:45 19° NW visible
